Flag for Germany Weather past 2 weeks in Frankfurt, Hesse, Germany

Now
50 °F

Scattered clouds.


Feels Like: 45 °F
Forecast: 36 / 46 °F
Wind: 15 mph from West

Location: Frankfurt-M-Flughafen Airport

Current Time: Mar 2, 2015 at 4:11:41 PM

Latest Report: Mar 2, 2015 at 3:20 PM


Visibility: N/A

Pressure: 29.74 "Hg

Humidity: 40%

Dew point: 27 °F

Location of FrankfurtLocation

Historic Weather in Frankfurt — Graph

°F

Frankfurt temperature yesterday

Maximum temperature yesterday: 50 °F (at 1:50 PM)
Minimum temperature yesterday: 36 °F (at 12:20 AM)
Average temperature yesterday: 43 °F

Past Weeks' High & Low Weather Summary

 TemperatureHumidityPressure
High52 °F (Feb 20, 1:50 PM)100% (Feb 22, 2:50 AM)30.74 "Hg (Feb 22, 2:50 AM)
Low28 °F (Feb 28, 6:50 AM)35% (Mar 2, 2:50 PM)29.45 "Hg (Feb 21, 7:20 AM)
Average39 °F80%30.00 "Hg
* Reported Feb 15 2:20 PM — Mar 2 2:50 PM, Frankfurt, Weather by CustomWeather, © 2015

Note: Actual official high and low records may vary slightly from our data, if they occured in-between our weather recording intervals... More about our weather records

Advertising

Frankfurt weather history for previous 24 hours

 ConditionsComfort  
Time TempWeatherWind HumidityBarometerVisibility
2:50 PM
Mon, Mar 2
50 °FPartly sunny.20 mph35%29.74 "HgN/A
2:20 PM50 °FPartly sunny.17 mph40%29.74 "HgN/A
1:50 PM50 °FScattered clouds.17 mph47%29.74 "HgN/A
1:20 PM48 °FScattered clouds.15 mph50%29.74 "HgN/A
12:50 PM48 °FPassing clouds.14 mph50%29.74 "HgN/A
12:20 PM48 °FPassing clouds.16 mph50%29.74 "HgN/A
11:50 AM46 °FPassing clouds.15 mph62%29.74 "HgN/A
11:20 AM45 °FScattered showers. Passing clouds.17 mph66%29.74 "HgN/A
10:50 AM43 °FScattered showers. Partly sunny.23 mph66%29.74 "HgN/A
10:20 AM46 °FScattered showers. Partly sunny.20 mph57%29.71 "HgN/A
9:50 AM45 °FScattered showers. Passing clouds.17 mph66%29.68 "HgN/A
9:20 AM45 °FPassing clouds.12 mph71%29.68 "HgN/A
8:50 AM43 °FScattered showers. Scattered clouds.14 mph76%29.65 "HgN/A
8:20 AM45 °FSprinkles. Broken clouds.12 mph66%29.65 "HgN/A
7:50 AM45 °FPartly sunny.12 mph61%29.62 "HgN/A
7:20 AM43 °FScattered clouds.9 mph71%29.62 "HgN/A
6:50 AM45 °FPassing clouds.7 mph71%29.59 "HgN/A
6:20 AM45 °FPartly cloudy.12 mph71%29.59 "HgN/A
5:50 AM46 °FPassing clouds.12 mph66%29.59 "HgN/A
5:20 AM46 °FPassing clouds.14 mph66%29.59 "HgN/A
4:50 AM46 °FPartly cloudy.16 mph71%29.56 "HgN/A
4:20 AM46 °FScattered showers. Passing clouds.18 mph76%29.56 "HgN/A
3:50 AM48 °FPartly cloudy.17 mph76%29.53 "HgN/A
3:20 AM46 °FPassing clouds.15 mph87%29.53 "HgN/A
2:50 AM46 °FPartly cloudy.13 mph87%29.53 "HgN/A
2:20 AM46 °FPartly cloudy.13 mph87%29.53 "HgN/A
1:50 AM46 °FPartly cloudy.12 mph87%29.53 "HgN/A
1:20 AM48 °FLight rain. Mostly cloudy.10 mph82%29.56 "HgN/A
12:50 AM48 °FPartly cloudy.13 mph76%29.56 "HgN/A
12:20 AM48 °FPassing clouds.10 mph76%29.59 "HgN/A
11:50 PM
Sun, Mar 1
48 °FPassing clouds.13 mph82%29.59 "HgN/A
11:20 PM48 °FPassing clouds.14 mph82%29.62 "HgN/A
10:20 PM48 °FPartly cloudy.10 mph82%29.65 "HgN/A
9:50 PM48 °FPassing clouds.9 mph82%29.65 "HgN/A
9:20 PM48 °FPassing clouds.9 mph82%29.68 "HgN/A
8:20 PM48 °FClear.12 mph82%29.68 "Hg10 mi
7:50 PM46 °FClear.10 mph87%29.68 "Hg10 mi
7:20 PM48 °FClear.14 mph82%29.68 "Hg10 mi
6:50 PM50 °FPassing clouds.16 mph76%29.68 "HgN/A
6:20 PM50 °FPassing clouds.14 mph76%29.68 "HgN/A
5:50 PM50 °FPassing clouds.14 mph76%29.68 "HgN/A
5:20 PM50 °FScattered clouds.14 mph76%29.68 "HgN/A
4:20 PM50 °FScattered clouds.14 mph82%29.68 "HgN/A
Weather by CustomWeather, © 2015

See weather overviewHow to use our weather pages